Location: Delettes
(50.6178°N, 2.2123°E)
Time: 16:11:56
(UTC+00:00)

FREGAT/IRIS - Pass Details

Date: 27 February 2020
Orbit: 335 x 337 km, 96.9° (Epoch: 30 March)

Event Time Altitude Azimuth Distance (km) Brightness Sun altitude
Exits shadow 19:30:34 51° 249° (WSW) 440 3.1 -20.1°
Maximum altitude 19:30:41 51° 260° (W) 437 3.1 -20.1°
Drops below altitude 10° 19:33:23 10° 338° (NNW) 1,293 5.7 -20.5°
Sets 19:35:19 0° 344° (NNW) 2,137 6.7 -20.8°
